Regional Weather Roundup
Issued by NWS Newport/Morehead, NC

Current Version | Previous Version | Graphics & Text | Print | Product List | Glossary On
Versions: 1 2 3 4 5 6 7 8 9 10 11 12 13 14 15 16 17 18 19 20 21 22 23 24 25 26 27 28 29 30 31 32 33 34 35 36 37 38 39 40 41 42 43 44 45 46 47 48 49 50
000 ASUS42 KMHX 221324 RWRMHX WEATHER ROUNDUP FOR EASTERN NORTH CAROLINA NATIONAL WEATHER SERVICE NEWPORT/MOREHEAD CITY NC 900 AM EDT FRI MAY 22 2015 NOTE: "FAIR" INDICATES FEW OR NO CLOUDS BELOW 12,000 FEET WITH NO SIGNIFICANT WEATHER AND/OR OBSTRUCTIONS TO VISIBILITY NCZ015>017-031-032-045>047-102-103-221400- NORTH COAST CITY SKY/WX TMP DP RH WIND PRES REMARKS EDENTON SUNNY 61 49 64 N14 30.13S ELIZABETH CITY SUNNY 60 48 64 NW16 30.11R KITTY HAWK PTSUNNY 61 50 69 N6G16 30.10R MANTEO PTSUNNY 60 51 72 N12 30.12R $$ NCZ045>047-081-094-103-104-221400- CENTRAL COAST CITY SKY/WX TMP DP RH WIND PRES REMARKS FRISCO MOSUNNY 62 50 64 N8G22 30.10R SWANQUARTER N/A 61 N/A N/A N7G18 30.09S $$ NCZ095-097-098-100-101-221400- SOUTHERN COAST CITY SKY/WX TMP DP RH WIND PRES REMARKS BEAUFORT CLOUDY 62 54 74 N13 30.13R CEDAR ISLAND N/A 63 N/A N/A NW22 30.18R JACKSONVILLE PTSUNNY 62 52 69 N14 30.15R PINEY ISLAND MOSUNNY N/A N/A N/A N18 30.12R WILMINGTON PTSUNNY 63 54 72 N15 30.14R $$ NCZ011>013-027>030-043-044-078>080-089-090>093-098-221400- COASTAL PLAIN CITY SKY/WX TMP DP RH WIND PRES REMARKS AHOSKIE SUNNY 59 46 62 N7 30.15R CLINTON SUNNY 63 51 66 N13 30.16R ELIZABETHTOWN MOSUNNY 63 51 64 CALM 30.16R GOLDSBORO MOSUNNY 62 50 65 NE10G17 30.14R GREENVILLE PTSUNNY 61 52 72 N9 30.16R HAVELOCK CLOUDY 62 51 67 N13 30.14R KENANSVILLE CLOUDY 59 54 81 N6 30.16R KINSTON SUNNY 61 52 72 N14 30.16R NEW BERN CLOUDY 62 52 69 N7 30.16R RICHLANDS CLOUDY 63 50 63 N10G18 30.16R ROCKY MOUNT SUNNY 62 48 60 N12 30.16R WASHINGTON PTSUNNY N/A N/A N/A N10 30.15R WHITEVILLE PTSUNNY 64 52 65 N7 30.16R $$ AMZ130-135-150-152-154-156-158-170-250-252-270-ANZ085-086-088-633-658-670-221400- MARINE OBSERVATIONS STATION/POSITION TIME TEMP WIND PRES WAVE SWELL AIR SEA DIR/SP/G HT/PER HT/PER (UTC) (F) (DEG/KT/KT) (MB) (FT/S) (FT/S) CHESAPEAKE LIGHT 1300 59 340/ 20/ 20 1019.3 64 E VA BEACH 1250 59 59 340/ 16/ 17 1017.6 6/ 6 3/ 7 DUCK 1300 58 66 340/ 13/ 15 1018.4 2 E DUCK 1211 64 N/A 4/ 7 OREGON INLET 1300 61 68 340/ 12/ 17 1019.4 13E OREGON INLT 1300 62 N/A 6/ 7 HATTERAS CG 1300 62 71 340/ 16/ 21 1019.1 DIAMOND BUOY 1250 63 76 360/ 16/ 19 1018.8 5/ 7 2/13 CAPE LOOKOUT 1300 62 360/ 14/ 17 1019.8 BEAUFORT LAB 1300 62 74 10/ 13/ 17 1019.4 27 SE WRIGHTSVLE 1200 62 77 30/ 16/ 19 N/A 5 SE WRIGHTSVLE 1208 63 76 20/ 17/ 23 1019.5 225 S CAPE HAT 1250 76 75 240/ 12/ 14 1016.8 4/ 7 3/ 7 41 SE CHARLESTON 1250 69 76 30/ 23/ 27 1017.9 6/ 6 2/11 $$

USA.gov is the U.S. government's official web portal to all federal, state and local government web resources and services.